Time,TemperatureF,DewpointF,PressureIn,WindDirection,WindDirectionDegrees,WindSpeedMPH,WindSpeedGustMPH,Humidity,HourlyPrecipIn,Conditions,Clouds,dailyrainin,SolarRadiationWatts/m^2,SoftwareType,DateUTC
2013-07-26 00:02:00,90.0,64.0,29.93,WSW,256,4.0,7.0,42,-99.99,,,-99.99,0.000000,,2013-07-26 07:02:00,
2013-07-26 00:12:00,90.0,65.0,29.93,West,272,2.0,6.0,43,-99.99,,,-99.99,0.000000,,2013-07-26 07:12:00,
2013-07-26 00:22:00,90.0,65.0,29.93,West,272,2.0,6.0,43,-99.99,,,-99.99,0.000000,,2013-07-26 07:22:00,
2013-07-26 00:32:00,90.0,64.0,29.93,WSW,240,3.0,5.0,42,-99.99,,,-99.99,0.000000,,2013-07-26 07:32:00,
2013-07-26 00:43:00,90.0,62.0,29.93,WSW,242,2.0,6.0,39,-99.99,,,-99.99,0.000000,,2013-07-26 07:43:00,
2013-07-26 00:52:00,91.0,60.0,29.93,West,264,1.0,3.0,36,-99.99,,,-99.99,0.000000,,2013-07-26 07:52:00,
2013-07-26 01:02:00,90.0,57.0,29.93,North,2,3.0,6.0,33,-99.99,,,-99.99,0.000000,,2013-07-26 08:02:00,
2013-07-26 01:22:00,90.0,55.0,29.92,NNE,20,2.0,5.0,31,-99.99,,,-99.99,0.000000,,2013-07-26 08:22:00,
2013-07-26 01:32:00,90.0,55.0,29.91,WSW,246,0.0,2.0,31,-99.99,,,-99.99,0.000000,,2013-07-26 08:32:00,
2013-07-26 01:44:00,90.0,55.0,29.91,WSW,246,0.0,2.0,31,-99.99,,,-99.99,0.000000,,2013-07-26 08:44:00,
2013-07-26 02:02:00,89.0,55.0,29.89,NNE,32,3.0,4.0,32,-99.99,,,-99.99,0.000000,,2013-07-26 09:02:00,
2013-07-26 02:12:00,89.0,55.0,29.89,ENE,77,2.0,4.0,32,-99.99,,,-99.99,0.000000,,2013-07-26 09:12:00,
2013-07-26 02:20:00,89.0,55.0,29.89,NE,40,2.0,5.0,32,-99.99,,,-99.99,0.000000,,2013-07-26 09:20:00,
2013-07-26 02:22:00,89.0,55.0,29.89,SSW,194,0.0,1.0,32,-99.99,,,-99.99,0.000000,,2013-07-26 09:22:00,
2013-07-26 02:32:00,89.0,55.0,29.89,SSW,203,2.0,3.0,32,-99.99,,,-99.99,0.000000,,2013-07-26 09:32:00,
2013-07-26 02:43:00,89.0,55.0,29.89,SSW,203,2.0,3.0,32,-99.99,,,-99.99,0.000000,,2013-07-26 09:43:00,
2013-07-26 02:52:00,89.0,55.0,29.89,NE,40,2.0,5.0,32,-99.99,,,-99.99,0.000000,,2013-07-26 09:52:00,
2013-07-26 03:02:00,89.0,55.0,29.89,NE,40,2.0,5.0,32,-99.99,,,-99.99,0.000000,,2013-07-26 10:02:00,
2013-07-26 03:12:00,89.0,55.0,29.89,NE,40,2.0,5.0,32,-99.99,,,-99.99,0.000000,,2013-07-26 10:12:00,
2013-07-26 03:42:00,86.0,56.0,29.91,NNW,332,0.0,1.0,36,-99.99,,,-99.99,0.000000,,2013-07-26 10:42:00,
2013-07-26 03:52:00,86.0,55.0,29.91,ENE,67,3.0,4.0,35,-99.99,,,-99.99,0.000000,,2013-07-26 10:52:00,
2013-07-26 04:02:00,87.0,56.0,29.91,South,175,1.0,2.0,35,-99.99,,,-99.99,0.000000,,2013-07-26 11:02:00,
2013-07-26 04:12:00,87.0,56.0,29.91,South,175,1.0,2.0,35,-99.99,,,-99.99,0.000000,,2013-07-26 11:12:00,
2013-07-26 04:20:00,88.0,56.0,29.91,SSW,205,4.0,5.0,34,-99.99,,,-99.99,0.000000,,2013-07-26 11:20:00,
2013-07-26 04:22:00,87.0,55.0,29.91,SW,217,4.0,5.0,34,-99.99,,,-99.99,0.000000,,2013-07-26 11:22:00,
2013-07-26 04:32:00,87.0,55.0,29.91,SW,217,4.0,5.0,34,-99.99,,,-99.99,0.000000,,2013-07-26 11:32:00,
2013-07-26 04:43:00,88.0,56.0,29.91,SSW,193,3.0,5.0,34,-99.99,,,-99.99,0.000000,,2013-07-26 11:43:00,
2013-07-26 04:52:00,88.0,56.0,29.91,SSW,205,4.0,5.0,34,-99.99,,,-99.99,0.000000,,2013-07-26 11:52:00,
2013-07-26 05:02:00,88.0,56.0,29.91,SSW,205,4.0,5.0,34,-99.99,,,-99.99,0.000000,,2013-07-26 12:02:00,
2013-07-26 05:12:00,88.0,56.0,29.91,SSW,205,4.0,5.0,34,-99.99,,,-99.99,0.000000,,2013-07-26 12:12:00,
2013-07-26 05:33:00,87.0,57.0,29.92,South,186,0.0,1.0,36,-99.99,,,-99.99,0.000000,,2013-07-26 12:33:00,
2013-07-26 05:43:00,87.0,57.0,29.92,NE,40,0.0,2.0,36,-99.99,,,-99.99,0.000000,,2013-07-26 12:43:00,
2013-07-26 05:53:00,86.0,56.0,29.92,NNE,12,3.0,6.0,36,-99.99,,,-99.99,0.000000,,2013-07-26 12:53:00,
2013-07-26 06:12:00,85.0,55.0,29.92,ENE,57,2.0,4.0,36,-99.99,,,-99.99,0.000000,,2013-07-26 13:12:00,
2013-07-26 06:20:00,85.0,55.0,29.95,SE,142,0.0,1.0,36,-99.99,,,-99.99,0.000000,,2013-07-26 13:20:00,
2013-07-26 06:22:00,85.0,55.0,29.93,East,94,1.0,3.0,36,-99.99,,,-99.99,0.000000,,2013-07-26 13:22:00,
2013-07-26 06:43:00,85.0,55.0,29.94,SW,226,0.0,1.0,36,-99.99,,,-99.99,0.000000,,2013-07-26 13:43:00,
2013-07-26 06:53:00,85.0,55.0,29.95,SE,142,0.0,1.0,36,-99.99,,,-99.99,0.000000,,2013-07-26 13:53:00,
2013-07-26 07:02:00,85.0,55.0,29.95,SE,142,0.0,1.0,36,-99.99,,,-99.99,0.000000,,2013-07-26 14:02:00,
2013-07-26 07:12:00,85.0,55.0,29.95,SE,142,0.0,1.0,36,-99.99,,,-99.99,0.000000,,2013-07-26 14:12:00,
2013-07-26 07:43:00,86.0,57.0,29.97,SSW,212,2.0,3.0,37,-99.99,,,-99.99,20.000000,,2013-07-26 14:43:00,
2013-07-26 07:53:00,85.0,63.0,29.97,NNE,31,2.0,5.0,47,-99.99,,,-99.99,30.000000,,2013-07-26 14:53:00,
2013-07-26 08:12:00,84.0,61.0,29.98,NE,51,3.0,5.0,46,-99.99,,,-99.99,50.000000,,2013-07-26 15:12:00,
2013-07-26 08:22:00,86.0,59.0,29.99,NNE,16,2.0,3.0,41,-99.99,,,-99.99,100.000000,,2013-07-26 15:22:00,
2013-07-26 08:43:00,86.0,59.0,30.00,NNE,29,1.0,2.0,40,-99.99,,,-99.99,80.000000,,2013-07-26 15:43:00,
2013-07-26 08:53:00,86.0,58.0,30.00,NNW,328,1.0,2.0,39,-99.99,,,-99.99,90.000000,,2013-07-26 15:53:00,
2013-07-26 09:22:00,85.0,58.0,30.01,North,3,5.0,7.0,40,-99.99,,,-99.99,220.000000,,2013-07-26 16:22:00,
2013-07-26 09:40:00,86.0,56.0,30.01,North,357,7.0,10.0,36,-99.99,,,-99.99,320.000000,,2013-07-26 16:40:00,
2013-07-26 09:43:00,87.0,57.0,30.01,NNE,18,2.0,4.0,36,-99.99,,,-99.99,360.000000,,2013-07-26 16:43:00,
2013-07-26 09:54:00,87.0,56.0,30.01,North,11,5.0,7.0,35,-99.99,,,-99.99,300.000000,,2013-07-26 16:54:00,
2013-07-26 10:02:00,87.0,56.0,30.01,North,5,6.0,8.0,36,-99.99,,,-99.99,290.000000,,2013-07-26 17:02:00,
2013-07-26 10:12:00,86.0,56.0,30.01,North,357,7.0,10.0,36,-99.99,,,-99.99,320.000000,,2013-07-26 17:12:00,
2013-07-26 10:22:00,86.0,56.0,30.01,North,357,7.0,10.0,36,-99.99,,,-99.99,320.000000,,2013-07-26 17:22:00,
2013-07-26 10:33:00,86.0,56.0,30.01,North,357,7.0,10.0,36,-99.99,,,-99.99,320.000000,,2013-07-26 17:33:00,
2013-07-26 10:53:00,88.0,56.0,30.02,North,0,5.0,7.0,34,-99.99,,,-99.99,560.000000,,2013-07-26 17:53:00,
2013-07-26 11:02:00,88.0,55.0,30.02,North,4,4.0,7.0,33,-99.99,,,-99.99,540.000000,,2013-07-26 18:02:00,
2013-07-26 11:12:00,88.0,55.0,30.02,North,360,3.0,7.0,33,-99.99,,,-99.99,360.000000,,2013-07-26 18:12:00,
2013-07-26 11:22:00,89.0,55.0,30.01,North,1,3.0,7.0,32,-99.99,,,-99.99,590.000000,,2013-07-26 18:22:00,
2013-07-26 11:33:00,89.0,55.0,30.01,North,354,4.0,7.0,32,-99.99,,,-99.99,340.000000,,2013-07-26 18:33:00,
2013-07-26 11:43:00,89.0,56.0,30.01,NNE,14,3.0,7.0,33,-99.99,,,-99.99,260.000000,,2013-07-26 18:43:00,
2013-07-26 11:52:00,89.0,56.0,30.01,NNW,347,5.0,8.0,33,-99.99,,,-99.99,400.000000,,2013-07-26 18:52:00,
2013-07-26 12:02:00,89.0,56.0,30.01,NNW,348,5.0,8.0,33,-99.99,,,-99.99,240.000000,,2013-07-26 19:02:00,
2013-07-26 12:43:00,89.0,58.0,30.00,North,353,5.0,8.0,36,-99.99,,,-99.99,420.000000,,2013-07-26 19:43:00,
2013-07-26 12:52:00,89.0,58.0,30.00,North,353,5.0,8.0,36,-99.99,,,-99.99,420.000000,,2013-07-26 19:52:00,
2013-07-26 13:12:00,91.0,58.0,30.00,North,350,7.0,12.0,34,-99.99,,,-99.99,630.000000,,2013-07-26 20:12:00,
2013-07-26 13:22:00,91.0,59.0,30.00,North,353,7.0,12.0,35,-99.99,,,-99.99,470.000000,,2013-07-26 20:22:00,
2013-07-26 13:32:00,91.0,60.0,30.00,North,357,8.0,11.0,36,-99.99,,,-99.99,900.000000,,2013-07-26 20:32:00,
2013-07-26 13:43:00,91.0,60.0,30.00,North,355,7.0,10.0,35,-99.99,,,-99.99,610.000000,,2013-07-26 20:43:00,
2013-07-26 14:30:00,95.0,60.0,29.98,NNW,335,2.0,7.0,32,-99.99,,,-99.99,390.000000,,2013-07-26 21:30:00,
2013-07-26 15:40:00,96.0,61.0,29.96,North,353,6.0,13.0,32,-99.99,,,-99.99,830.000000,,2013-07-26 22:40:00,
2013-07-26 15:43:00,95.0,61.0,29.97,North,357,6.0,10.0,33,-99.99,,,-99.99,600.000000,,2013-07-26 22:43:00,
2013-07-26 15:53:00,96.0,61.0,29.96,North,359,8.0,13.0,32,-99.99,,,-99.99,1050.000000,,2013-07-26 22:53:00,
2013-07-26 16:02:00,95.0,62.0,29.96,North,354,7.0,10.0,33,-99.99,,,-99.99,850.000000,,2013-07-26 23:02:00,
2013-07-26 16:22:00,96.0,61.0,29.96,North,353,6.0,13.0,32,-99.99,,,-99.99,830.000000,,2013-07-26 23:22:00,
2013-07-26 16:32:00,96.0,61.0,29.96,North,353,6.0,13.0,32,-99.99,,,-99.99,830.000000,,2013-07-26 23:32:00,
2013-07-26 16:53:00,96.0,61.0,29.95,North,357,9.0,13.0,32,-99.99,,,-99.99,600.000000,,2013-07-26 23:53:00,
2013-07-26 17:12:00,96.0,61.0,29.94,North,358,9.0,14.0,32,-99.99,,,-99.99,590.000000,,2013-07-27 00:12:00,
2013-07-26 17:22:00,95.0,61.0,29.94,North,359,8.0,13.0,32,-99.99,,,-99.99,550.000000,,2013-07-27 00:22:00,
2013-07-26 17:32:00,96.0,61.0,29.94,North,2,8.0,15.0,32,-99.99,,,-99.99,510.000000,,2013-07-27 00:32:00,
2013-07-26 17:40:00,95.0,60.0,29.92,North,358,6.0,9.0,31,-99.99,,,-99.99,210.000000,,2013-07-27 00:40:00,
2013-07-26 17:42:00,95.0,61.0,29.93,North,354,7.0,12.0,32,-99.99,,,-99.99,480.000000,,2013-07-27 00:42:00,
2013-07-26 17:53:00,95.0,61.0,29.93,North,357,6.0,11.0,32,-99.99,,,-99.99,440.000000,,2013-07-27 00:53:00,
2013-07-26 18:02:00,96.0,60.0,29.92,NNW,346,6.0,9.0,31,-99.99,,,-99.99,390.000000,,2013-07-27 01:02:00,
2013-07-26 18:22:00,95.0,60.0,29.92,North,358,6.0,9.0,31,-99.99,,,-99.99,210.000000,,2013-07-27 01:22:00,
2013-07-26 18:32:00,95.0,60.0,29.92,North,358,6.0,9.0,31,-99.99,,,-99.99,210.000000,,2013-07-27 01:32:00,
2013-07-26 18:53:00,95.0,59.0,29.90,North,356,6.0,10.0,30,-99.99,,,-99.99,180.000000,,2013-07-27 01:53:00,
2013-07-26 19:02:00,95.0,59.0,29.90,North,356,6.0,10.0,30,-99.99,,,-99.99,180.000000,,2013-07-27 02:02:00,
2013-07-26 19:12:00,95.0,59.0,29.90,North,9,5.0,9.0,30,-99.99,,,-99.99,140.000000,,2013-07-27 02:12:00,
2013-07-26 19:22:00,95.0,59.0,29.90,North,3,4.0,8.0,31,-99.99,,,-99.99,40.000000,,2013-07-27 02:22:00,
2013-07-26 19:32:00,95.0,59.0,29.90,North,8,4.0,6.0,31,-99.99,,,-99.99,30.000000,,2013-07-27 02:32:00,
2013-07-26 19:43:00,95.0,60.0,29.90,North,6,4.0,7.0,32,-99.99,,,-99.99,30.000000,,2013-07-27 02:43:00,
2013-07-26 19:52:00,94.0,60.0,29.89,North,11,4.0,7.0,32,-99.99,,,-99.99,30.000000,,2013-07-27 02:52:00,
2013-07-26 20:02:00,94.0,60.0,29.89,NNE,16,2.0,5.0,32,-99.99,,,-99.99,10.000000,,2013-07-27 03:02:00,
2013-07-26 20:10:00,94.0,60.0,29.89,WSW,256,0.0,1.0,33,-99.99,,,-99.99,0.000000,,2013-07-27 03:10:00,
2013-07-26 20:22:00,94.0,60.0,29.89,NE,50,0.0,2.0,32,-99.99,,,-99.99,10.000000,,2013-07-27 03:22:00,
2013-07-26 20:44:00,94.0,60.0,29.89,WSW,256,0.0,1.0,33,-99.99,,,-99.99,0.000000,,2013-07-27 03:44:00,
2013-07-26 20:52:00,94.0,60.0,29.89,WSW,256,0.0,1.0,33,-99.99,,,-99.99,0.000000,,2013-07-27 03:52:00,
2013-07-26 21:02:00,94.0,60.0,29.89,WSW,256,0.0,1.0,33,-99.99,,,-99.99,0.000000,,2013-07-27 04:02:00,
2013-07-26 21:22:00,94.0,57.0,29.90,SW,215,9.0,16.0,30,-99.99,,,-99.99,0.000000,,2013-07-27 04:22:00,
2013-07-26 21:32:00,94.0,56.0,29.90,SW,226,6.0,12.0,29,-99.99,,,-99.99,0.000000,,2013-07-27 04:32:00,
2013-07-26 21:43:00,94.0,57.0,29.90,SSW,213,4.0,8.0,29,-99.99,,,-99.99,0.000000,,2013-07-27 04:43:00,
2013-07-26 21:53:00,94.0,57.0,29.91,SSW,210,5.0,9.0,29,-99.99,,,-99.99,0.000000,,2013-07-27 04:53:00,
2013-07-26 22:12:00,94.0,55.0,29.91,SSW,205,7.0,12.0,28,-99.99,,,-99.99,0.000000,,2013-07-27 05:12:00,
2013-07-26 22:22:00,94.0,55.0,29.91,SSW,210,7.0,12.0,27,-99.99,,,-99.99,0.000000,,2013-07-27 05:22:00,
2013-07-26 22:32:00,93.0,57.0,29.91,WNW,285,5.0,12.0,30,-99.99,,,-99.99,0.000000,,2013-07-27 05:32:00,
2013-07-26 22:43:00,90.0,58.0,29.92,North,356,4.0,8.0,34,-99.99,,,-99.99,0.000000,,2013-07-27 05:43:00,
2013-07-26 22:52:00,90.0,59.0,29.92,North,8,3.0,6.0,36,-99.99,,,-99.99,0.000000,,2013-07-27 05:52:00,
2013-07-26 23:02:00,89.0,59.0,29.91,North,5,4.0,7.0,36,-99.99,,,-99.99,0.000000,,2013-07-27 06:02:00,
2013-07-26 23:12:00,89.0,59.0,29.91,ENE,57,3.0,5.0,36,-99.99,,,-99.99,0.000000,,2013-07-27 06:12:00,
2013-07-26 23:22:00,89.0,59.0,29.91,ENE,57,3.0,5.0,36,-99.99,,,-99.99,0.000000,,2013-07-27 06:22:00,
2013-07-26 23:33:00,89.0,59.0,29.91,ENE,57,3.0,5.0,36,-99.99,,,-99.99,0.000000,,2013-07-27 06:33:00,
2013-07-26 23:43:00,89.0,58.0,29.91,ENE,61,3.0,4.0,36,-99.99,,,-99.99,0.000000,,2013-07-27 06:43:00,
2013-07-26 23:52:00,89.0,58.0,29.91,ENE,60,2.0,5.0,36,-99.99,,,-99.99,0.000000,,2013-07-27 06:52:00,